Anchorage Merrill, AK

5:03 PM AKDT on July 22, 2017 (GMT -0800)
Merrill

Weather History for PAMR - October, 2013

Change the Weather History Date:

Thursday, October 10, 2013

  Actual Average Record
Temperature  
Mean Temperature 36 °F -  
Max Temperature 43 °F 42 °F 62 °F (1993)
Min Temperature 30 °F 29 °F 21 °F (2007)
Degree Days  
Heating Degree Days 29    
Moisture  
Dew Point 30 °F    
Average Humidity 74    
Maximum Humidity 87    
Minimum Humidity 55    
Precipitation  
Precipitation 0.13 in - - ()
Sea Level Pressure  
Sea Level Pressure 29.72 in    
Wind  
Wind Speed 2 mph (North)    
Max Wind Speed 7 mph    
Max Gust Speed -    
Visibility 9 miles    
Events Rain    
Averages and records for this station are not official NWS values.
T = Trace of Precipitation, MM = Missing Value Source: NWS Daily Summary

Daily Weather History Graph

Daily Weather History Graph

Search for Another Location

Airport or City:

Trip Planner

Search our weather history database for the weather conditions in past years. The results will help you decide how hot, cold, wet, or windy it might be!

Date:

Astronomy

Oct. 10, 2013 Rise Set
Actual Time 8:29 AM AKDT 7:01 PM AKDT
Civil Twilight 7:46 AM AKDT 7:44 PM AKDT
Nautical Twilight 6:56 AM AKDT 8:34 PM AKDT
Astronomical Twilight 6:05 AM AKDT 9:25 PM AKDT
Moon 3:36 PM AKDT (10/10) 10:46 PM AKDT (10/10)
Length of Visible Light 11h 58m
Length of Day
10h 31m
Waxing Crescent, 37% of the Moon is Illuminated
Oct 10
Waxing Crescent
Oct 11
First Quarter
Oct 18
Full
Oct 26
Last Quarter
Nov 3
New

Hourly Weather History & Observations

Time (AKDT) Temp. Windchill Dew Point Humidity Pressure Visibility Wind Dir Wind Speed Gust Speed Precip Events Conditions
12:53 AM 36.0 °F - 25.0 °F 64% 29.73 in 10.0 mi Calm Calm - N/A   Clear
1:53 AM 30.9 °F 26.2 °F 23.0 °F 72% 29.74 in 10.0 mi East 4.6 mph - N/A   Clear
2:53 AM 32.0 °F - 23.0 °F 69% 29.74 in 10.0 mi Calm Calm - N/A   Clear
3:53 AM 35.1 °F - 23.0 °F 61% 29.73 in 10.0 mi Calm Calm - N/A   Scattered Clouds
4:53 AM 34.0 °F - 21.9 °F 61% 29.73 in 10.0 mi Calm Calm - N/A   Mostly Cloudy
5:53 AM 35.1 °F - 21.9 °F 59% 29.73 in 10.0 mi Calm Calm - N/A   Mostly Cloudy
6:53 AM 34.0 °F - 21.9 °F 61% 29.73 in 10.0 mi Calm Calm - N/A   Mostly Cloudy
7:53 AM 33.1 °F 28.7 °F 23.0 °F 66% 29.73 in 10.0 mi ESE 4.6 mph - N/A   Clear
8:53 AM 35.1 °F 32.2 °F 23.0 °F 61% 29.72 in 10.0 mi North 3.5 mph - N/A   Mostly Cloudy
9:53 AM 36.0 °F - 24.1 °F 62% 29.71 in 10.0 mi Calm Calm - N/A   Mostly Cloudy
10:53 AM 37.9 °F - 25.0 °F 60% 29.71 in 10.0 mi Calm Calm - N/A   Mostly Cloudy
11:53 AM 39.9 °F - 25.0 °F 55% 29.71 in 10.0 mi Calm Calm - N/A   Overcast
12:53 PM 42.1 °F - 28.0 °F 58% 29.72 in 10.0 mi Calm Calm - N/A   Overcast
1:53 PM 42.1 °F 37.7 °F 30.9 °F 65% 29.73 in 10.0 mi NNW 6.9 mph - 0.00 in Rain Light Rain
2:53 PM 41.0 °F 36.4 °F 33.1 °F 73% 29.73 in 5.0 mi North 6.9 mph - 0.04 in Rain Light Rain
3:53 PM 39.9 °F 35.1 °F 35.1 °F 83% 29.72 in 6.0 mi NNE 6.9 mph - 0.01 in Rain Light Rain
4:53 PM 41.0 °F 38.0 °F 35.1 °F 79% 29.71 in 8.0 mi North 4.6 mph - 0.02 in Rain Light Rain
5:30 PM 39.2 °F 37.0 °F 35.6 °F 87% 29.70 in 8.0 mi Variable 3.5 mph - 0.00 in Rain Light Rain
5:53 PM 39.9 °F 35.8 °F 36.0 °F 86% 29.71 in 6.0 mi North 5.8 mph - 0.01 in Rain Light Rain
6:53 PM 39.9 °F 36.7 °F 36.0 °F 86% 29.71 in 8.0 mi North 4.6 mph - 0.02 in Rain Light Rain
7:53 PM 39.9 °F - 36.0 °F 86% 29.71 in 10.0 mi Calm Calm - 0.01 in Rain Light Rain
8:53 PM 39.9 °F - 36.0 °F 86% 29.72 in 10.0 mi Calm Calm - 0.01 in Rain Light Rain
9:37 PM 39.2 °F - 35.6 °F 87% 29.72 in 10.0 mi Calm Calm - 0.01 in Rain Light Rain
9:53 PM 39.0 °F 36.8 °F 35.1 °F 86% 29.72 in 10.0 mi North 3.5 mph - 0.01 in   Overcast
10:12 PM 39.2 °F - 35.6 °F 87% 29.72 in 10.0 mi Calm Calm - N/A   Overcast
10:25 PM 39.2 °F - 35.6 °F 87% 29.72 in 10.0 mi Calm Calm - 0.00 in Rain Light Rain
10:53 PM 39.0 °F - 35.1 °F 86% 29.73 in 10.0 mi Calm Calm - 0.00 in Rain Light Rain
11:24 PM 39.2 °F 37.0 °F 35.6 °F 87% 29.73 in 10.0 mi North 3.5 mph - 0.00 in Rain Light Rain
11:51 PM 39.2 °F 35.9 °F 35.6 °F 87% 29.73 in 10.0 mi North 4.6 mph - 0.00 in Rain Light Rain
11:53 PM 39.0 °F 36.8 °F 35.1 °F 86% 29.73 in 10.0 mi NNE 3.5 mph - 0.00 in Rain Light Rain